Change the Weather History Date:

Wednesday, November 7, 2012

  Actual Average Record
Temperature  
Mean Temperature 32 °F -  
Max Temperature 35 °F 39 °F 50 °F (2002)
Min Temperature 28 °F 31 °F 17 °F (1985)
Degree Days  
Heating Degree Days 32    
Moisture  
Dew Point 11 °F    
Average Humidity 43    
Maximum Humidity 47    
Minimum Humidity 40    
Precipitation  
Precipitation 0.00 in - - ()
Sea Level Pressure  
Sea Level Pressure 30.29 in    
Wind  
Wind Speed 10 mph (NNE)    
Max Wind Speed 16 mph    
Max Gust Speed 31 mph    
Visibility 10 miles    
Events      
Averages and records for this station are not official NWS values.
T = Trace of Precipitation, MM = Missing Value Source: NWS Daily Summary

Daily Weather History Graph

Daily Weather History Graph

Search for Another Location

Airport or City:

Trip Planner

Search our weather history database for the weather conditions in past years. The results will help you decide how hot, cold, wet, or windy it might be!

Date:

Astronomy

Nov. 07, 2012 Rise Set
Actual Time 7:37 AM AKST 3:51 PM AKST
Civil Twilight 6:51 AM AKST 4:37 PM AKST
Nautical Twilight 6:02 AM AKST 5:26 PM AKST
Astronomical Twilight 5:14 AM AKST 6:14 PM AKST
Moon No Moon Rise 1:32 PM AKST (11/7)
Length of Visible Light 9h 45m
Length of Day
8h 13m
Last Quarter, 41% of the Moon is Illuminated
Nov 7
Last Quarter
Nov 13
New
Nov 20
First Quarter
Nov 28
Full
Dec 6
Last Quarter

Hourly Weather History & Observations

Time (AKST) Temp. Windchill Dew Point Humidity Pressure Visibility Wind Dir Wind Speed Gust Speed Precip Events Conditions
12:53 AM 35.1 °F 27.4 °F 16.0 °F 46% 29.99 in 10.0 mi North 10.4 mph 17.3 mph N/A   Overcast
1:53 AM 34.0 °F 25.5 °F 15.1 °F 46% 30.03 in 10.0 mi NNE 11.5 mph 17.3 mph N/A   Overcast
3:53 AM 33.1 °F 24.4 °F 14.0 °F 46% 30.08 in 10.0 mi North 11.5 mph 21.9 mph N/A   Overcast
4:53 AM 33.1 °F 25.5 °F 14.0 °F 46% 30.11 in 10.0 mi North 9.2 mph 23.0 mph N/A   Overcast
5:53 AM 33.1 °F 23.9 °F 12.9 °F 43% 30.14 in 10.0 mi NE 12.7 mph 18.4 mph N/A   Overcast
6:53 AM 32.0 °F 24.2 °F 12.0 °F 44% 30.17 in 10.0 mi North 9.2 mph - N/A   Overcast
7:53 AM 32.0 °F 26.4 °F 12.0 °F 44% 30.20 in 10.0 mi Variable 5.8 mph - N/A   Overcast
8:53 AM 32.0 °F 24.2 °F 12.0 °F 44% 30.23 in 10.0 mi NNE 9.2 mph - N/A   Overcast
9:53 AM 32.0 °F 22.5 °F 10.9 °F 42% 30.25 in 10.0 mi NNE 12.7 mph 17.3 mph N/A   Overcast
10:53 AM 32.0 °F 23.6 °F 10.0 °F 40% 30.28 in 10.0 mi NNE 10.4 mph 23.0 mph N/A   Scattered Clouds
11:53 AM 32.0 °F 24.2 °F 10.0 °F 40% 30.31 in 10.0 mi NNE 9.2 mph 18.4 mph N/A   Scattered Clouds
12:53 PM 32.0 °F 22.5 °F 10.0 °F 40% 30.33 in 10.0 mi NNE 12.7 mph 19.6 mph N/A   Clear
1:53 PM 30.9 °F 21.2 °F 10.0 °F 42% 30.35 in 10.0 mi NNE 12.7 mph 20.7 mph N/A   Clear
2:53 PM 30.9 °F 21.2 °F 10.0 °F 42% 30.36 in 10.0 mi NNE 12.7 mph 19.6 mph N/A   Overcast
3:53 PM 30.9 °F 23.5 °F 10.0 °F 42% 30.39 in 10.0 mi North 8.1 mph - N/A   Overcast
4:53 PM 30.9 °F 25.2 °F 10.0 °F 42% 30.40 in 10.0 mi North 5.8 mph 18.4 mph N/A   Clear
5:53 PM 30.0 °F 24.1 °F 10.0 °F 43% 30.41 in 10.0 mi Variable 5.8 mph 19.6 mph N/A   Clear
6:53 PM 30.0 °F 19.5 °F 10.0 °F 43% 30.42 in 10.0 mi North 13.8 mph 27.6 mph N/A   Clear
7:53 PM 30.0 °F 18.7 °F 10.0 °F 43% 30.43 in 10.0 mi NNE 16.1 mph 25.3 mph N/A   Clear
8:53 PM 30.0 °F 21.7 °F 10.9 °F 45% 30.44 in 10.0 mi NNE 9.2 mph 24.2 mph N/A   Clear
9:53 PM 30.0 °F 21.1 °F 10.9 °F 45% 30.45 in 9.0 mi NNE 10.4 mph 25.3 mph N/A   Clear
10:53 PM 30.0 °F 21.7 °F 10.9 °F 45% 30.45 in 10.0 mi NNE 9.2 mph 31.1 mph N/A   Clear
11:53 PM 28.9 °F 18.6 °F 10.9 °F 47% 30.47 in 10.0 mi NNE 12.7 mph 26.5 mph N/A   Clear